Weather History for Fort Lauderdale, FL

Change the Weather History Date:

Wednesday, December 19, 2012

  Actual Average Record
Temperature  
Mean Temperature 72 °F -  
Max Temperature 82 °F 77 °F 88 °F (1989)
Min Temperature 61 °F 58 °F 33 °F (1950)
Cooling Degree Days 6    
Growing Degree Days 22 (Base 50)    
Moisture  
Dew Point 61 °F    
Average Humidity 69    
Maximum Humidity 93    
Minimum Humidity 43    
Precipitation  
Precipitation 0.00 in - - ()
Sea Level Pressure  
Sea Level Pressure 30.06 in    
Wind  
Wind Speed 2 mph (ENE)    
Max Wind Speed 9 mph    
Max Gust Speed -    
Visibility 10 miles    
Events      
Averages and records for this station are not official NWS values.
T = Trace of Precipitation, MM = Missing Value Source: NWS Daily Summary

Daily Weather History Graph

Daily Weather History Graph

Search for Another Location

Airport:

Trip Planner

Search our weather history database for the weather conditions in past years. The results will help you decide how hot, cold, wet, or windy it might be!

Date:

Astronomy

Dec. 19, 2012 Rise Set
Actual Time 7:03 AM EST 5:33 PM EST
Civil Twilight 6:37 AM EST 5:58 PM EST
Nautical Twilight 6:08 AM EST 6:27 PM EST
Astronomical Twilight 5:40 AM EST 6:55 PM EST
Moon 11:48 AM EST (12/19) No Moon Set
Length of Visible Light 11h 20m
Length of Day
10h 30m
Waxing Crescent, 45% of the Moon is Illuminated
Dec 19
Waxing Crescent
Dec 20
First Quarter
Dec 28
Full
Jan 4
Last Quarter
Jan 11
New

Hourly Weather History & Observations

Time (EST) Temp. Heat Index Dew Point Humidity Pressure Visibility Wind Dir Wind Speed Gust Speed Precip Events Conditions
12:53 AM 69.1 °F - 66.0 °F 90% 30.03 in 10.0 mi Calm Calm - N/A   Clear
1:53 AM 68.0 °F - 64.0 °F 87% 30.03 in 10.0 mi Calm Calm - N/A   Clear
2:53 AM 66.0 °F - 64.0 °F 93% 30.03 in 10.0 mi Calm Calm - N/A   Clear
3:53 AM 64.9 °F - 62.1 °F 90% 30.02 in 10.0 mi Calm Calm - N/A   Clear
4:53 AM 64.0 °F - 59.0 °F 84% 30.03 in 10.0 mi NNW 3.5 mph - N/A   Clear
5:53 AM 63.0 °F - 57.0 °F 81% 30.04 in 10.0 mi Calm Calm - N/A   Clear
6:53 AM 61.0 °F - 57.0 °F 87% 30.06 in 10.0 mi Calm Calm - N/A   Clear
7:53 AM 64.9 °F - 55.9 °F 73% 30.07 in 10.0 mi Calm Calm - N/A   Clear
8:53 AM 70.0 °F - 59.0 °F 68% 30.09 in 10.0 mi Calm Calm - N/A   Clear
9:53 AM 77.0 °F - 57.0 °F 50% 30.11 in 10.0 mi NNE 5.8 mph - N/A   Clear
10:53 AM 80.1 °F 80.2 °F 55.9 °F 43% 30.10 in 10.0 mi Variable 3.5 mph - N/A   Clear
11:53 AM 81.0 °F 81.1 °F 57.9 °F 45% 30.09 in 10.0 mi East 5.8 mph - N/A   Clear
12:53 PM 81.0 °F 81.3 °F 59.0 °F 47% 30.06 in 10.0 mi Calm Calm - N/A   Clear
1:53 PM 82.0 °F 82.7 °F 61.0 °F 49% 30.05 in 10.0 mi East 9.2 mph - N/A   Clear
2:53 PM 81.0 °F 81.9 °F 62.1 °F 52% 30.04 in 10.0 mi Variable 4.6 mph - N/A   Partly Cloudy
3:53 PM 80.1 °F 81.2 °F 62.1 °F 54% 30.04 in 10.0 mi East 9.2 mph - N/A   Clear
4:53 PM 78.1 °F - 62.1 °F 58% 30.05 in 10.0 mi East 8.1 mph - N/A   Clear
5:53 PM 75.0 °F - 63.0 °F 66% 30.06 in 10.0 mi East 6.9 mph - N/A   Clear
6:53 PM 73.9 °F - 64.0 °F 71% 30.07 in 10.0 mi East 6.9 mph - N/A   Clear
7:53 PM 72.0 °F - 64.0 °F 76% 30.08 in 10.0 mi East 4.6 mph - N/A   Scattered Clouds
8:53 PM 71.1 °F - 63.0 °F 75% 30.09 in 10.0 mi East 4.6 mph - N/A   Clear
9:53 PM 71.1 °F - 63.0 °F 75% 30.09 in 10.0 mi East 5.8 mph - N/A   Clear
10:53 PM 71.1 °F - 62.1 °F 73% 30.09 in 10.0 mi East 4.6 mph - N/A   Scattered Clouds
11:53 PM 70.0 °F - 62.1 °F 76% 30.09 in 10.0 mi Calm Calm - N/A   Scattered Clouds